[[{"header":{"parameterUnit":"m.s-1","parameterCategory":1,"la1":30.2992,"la2":30.254,"lo1":-89.0895,"lo2":-89.0443,"dy":0.0025,"dx":0.0025,"nx":19,"ny":19,"refTime":"2026-03-21T03:00:00:Z","depth":0,"parameterNumber":2,"parameterNumberName":"U-component_of_WINDS"},"data":[0,0,0,3.8632,3.8635,3.8764,3.8765,3.8955,3.8957,0,0,0,0,0,0,0,0,0,0,0,3.861,3.8612,3.8632,3.8636,3.8764,3.8765,3.8955,3.8957,0,0,0,0,0,0,0,0,0,0,0,3.8609,3.8612,3.8614,3.8636,3.8764,3.8765,3.8955,3.8848,0,0,0,0,0,0,0,0,0,0,3.8718,3.8714,3.8611,3.8614,3.8637,3.8764,3.8765,3.8843,3.8855,3.8908,0,3.896,0,3.8962,3.8972,3.8973,0,0,0,3.8624,3.8704,3.8724,3.8614,3.8638,3.8764,3.8703,3.8849,3.8863,3.8925,3.8963,3.8969,3.8965,3.8973,3.8974,3.9321,3.9323,0,0,3.8617,3.8642,3.8715,3.8734,3.8716,3.8699,3.8707,3.8857,3.8901,3.8963,3.8973,3.8968,3.8975,3.8976,3.9319,3.9322,0,0,0,3.8604,3.8638,3.8654,3.8727,3.8748,3.8703,3.8712,3.8894,3.8897,3.8975,3.8971,3.8976,3.8979,3.9317,3.932,3.9451,0,0,0,3.8599,3.8631,3.8651,3.8668,3.8746,3.8823,3.8746,3.8886,3.8902,3.897,3.8976,3.8981,3.9314,3.9318,3.9443,3.9509,0,0,0,3.8596,3.863,3.8654,3.8669,3.8726,3.882,3.8831,3.8889,3.8901,3.8973,3.8981,3.9313,3.9318,3.9435,3.9496,3.9606,0,0,0,3.8601,3.8771,3.8657,3.8845,3.8725,3.8901,3.883,3.8959,3.9037,3.8977,3.9315,3.932,3.9432,3.9488,3.9598,3.9703,3.9749,0,0,3.883,3.88,3.8908,3.881,3.9012,3.8879,3.91,3.9148,3.9132,3.9259,3.9267,3.9446,3.9495,3.9605,4.0002,4.0039,0,0,0,3.8989,3.9067,3.9115,3.919,3.923,3.9269,3.9279,3.9296,3.9402,3.9202,3.9515,3.9544,3.9607,3.9656,3.9687,3.9738,3.9344,3.9343,3.9343,3.935,3.9319,3.9496,3.948,3.9553,3.9561,3.9617,3.9641,3.959,3.9664,3.9702,3.9947,4.0005,4.0028,4.0082,3.9756,3.9756,3.9757,3.9757,3.9681,3.9786,3.9712,3.9856,3.9822,3.9943,3.9957,3.9916,4.0023,3.9917,3.9971,3.9856,4.007,4.0115,3.9766,3.9765,3.9764,3.9763,3.9762,3.9913,3.9957,3.9975,4.0077,4.016,4.0138,4.0244,4.0209,4.0178,4.0231,4.0265,4.0263,4.0255,4.025,4.0251,4.0252,4.0253,4.0253,4.0254,4.0145,4.016,4.0253,4.0309,4.035,4.0402,4.041,4.0451,4.0486,4.0453,4.0453,4.0393,4.0097,4.0022,4.0267,4.0265,4.0263,4.0262,4.0261,4.0489,4.0405,4.0549,4.0592,4.0652,4.0735,4.069,4.0775,4.0803,4.0856,4.0784,4.0571,4.0538,4.0513,4.0451,4.0791,4.0791,4.0791,4.0791,4.0683,4.0663,4.0801,4.087,4.0934,4.0907,4.1069,4.1076,4.1071,4.1087,4.1032,4.0948,4.0923,4.0904,4.087,4.0812,4.1237,4.1237,4.1237,4.0892,4.0876,4.1021,4.1014,4.1058,4.1097,4.1247,4.1329,4.1306,4.1255,4.1097,4.1078,4.0941,4.0898,4.0843,4.0792,4.0683,0,0]},{"header":{"parameterUnit":"m.s-1","parameterCategory":1,"la1":30.2992,"la2":30.254,"lo1":-89.0895,"lo2":-89.0443,"dy":0.0025,"dx":0.0025,"nx":19,"ny":19,"refTime":"2026-03-21T03:00:00:Z","depth":0,"parameterNumber":3,"parameterNumberName":"V-component_of_WINDS"},"data":[0,0,0,5.8138,5.8142,5.8347,5.8348,5.8603,5.8606,0,0,0,0,0,0,0,0,0,0,0,5.8078,5.8079,5.8137,5.8142,5.8347,5.8348,5.8603,5.8606,0,0,0,0,0,0,0,0,0,0,0,5.8077,5.8079,5.8081,5.8143,5.8347,5.8348,5.8602,5.8449,0,0,0,0,0,0,0,0,0,0,5.8251,5.8198,5.8078,5.8081,5.8144,5.8347,5.8348,5.8442,5.8459,5.8509,0,5.8559,0,5.8587,5.8623,5.8624,0,0,0,5.8141,5.8184,5.8238,5.8082,5.8146,5.8346,5.8254,5.8451,5.847,5.8532,5.8563,5.8572,5.8591,5.8625,5.8626,5.8934,5.8935,0,0,5.8129,5.8114,5.8225,5.8251,5.8224,5.8248,5.826,5.8463,5.8494,5.8564,5.8578,5.8595,5.8626,5.8628,5.8932,5.8934,0,0,0,5.8098,5.8106,5.8156,5.824,5.8278,5.8254,5.8268,5.8485,5.8502,5.8581,5.8598,5.8628,5.8631,5.8931,5.8933,5.8994,0,0,0,5.8091,5.8088,5.8151,5.8144,5.8274,5.8385,5.8286,5.8488,5.8512,5.8597,5.8628,5.8633,5.8929,5.8932,5.8989,5.9025,0,0,0,5.8064,5.8085,5.8115,5.8143,5.8231,5.8382,5.8411,5.8494,5.8522,5.8624,5.8634,5.8928,5.8931,5.8984,5.9017,5.9101,0,0,0,5.8029,5.8166,5.8116,5.8274,5.8229,5.842,5.841,5.8552,5.8647,5.8629,5.8929,5.8933,5.8983,5.9013,5.9095,5.9168,5.9197,0,0,5.8193,5.8185,5.8279,5.8241,5.8437,5.839,5.8593,5.8693,5.8714,5.8858,5.8866,5.899,5.9017,5.9099,5.9367,5.939,0,0,0,5.8326,5.8393,5.8448,5.8539,5.862,5.8691,5.8762,5.8798,5.8921,5.8787,5.9044,5.906,5.9109,5.9144,5.9164,5.9206,5.8949,5.8948,5.8948,5.8534,5.8557,5.8713,5.876,5.8848,5.8918,5.899,5.905,5.9046,5.9106,5.9149,5.9309,5.9349,5.9364,5.9408,5.9189,5.919,5.919,5.919,5.8774,5.8872,5.8864,5.9013,5.9034,5.9158,5.923,5.9222,5.9337,5.9279,5.9323,5.9256,5.9389,5.9428,5.9195,5.9194,5.9193,5.9193,5.9193,5.8912,5.8963,5.9007,5.9139,5.9238,5.9279,5.9391,5.9406,5.942,5.9464,5.9509,5.9508,5.9507,5.9484,5.9485,5.9486,5.9486,5.9486,5.9487,5.9037,5.9085,5.918,5.9276,5.9336,5.9415,5.9486,5.9543,5.961,5.9611,5.9612,5.9599,5.9399,5.9347,5.9495,5.9494,5.9493,5.9492,5.9491,5.927,5.922,5.9366,5.9426,5.9539,5.9635,5.9653,5.9768,5.9817,5.987,5.9849,5.9699,5.969,5.9675,5.9632,5.9845,5.9845,5.9845,5.9845,5.9386,5.9384,5.9536,5.963,5.9723,5.9754,5.9913,5.9969,6.0017,6.0047,6.0019,5.9964,5.9947,5.9949,5.9927,5.9887,6.0161,6.0161,6.0161,5.9529,5.9537,5.9673,5.9723,5.9812,5.9887,6.0036,6.014,6.0184,6.0174,6.0071,6.0058,5.9969,5.994,5.9926,5.9893,5.982,0,0]}]]